{"data":{"norad_id":63182,"epoch":"2026-09-22T12:31:02.923104Z","epoch_age_seconds":136087,"freshness":"FRESH","line1":"1 63182U 25047E   26265.52156161  .00000657  00000+0  10697-3 0  9999","line2":"2 63182  97.9597  88.5809 0009153 237.2048 122.8280 14.74216715 82382","mean_motion":14.74216715,"eccentricity":0.0009153,"inclination_deg":97.9597,"raan_deg":88.5809,"arg_perigee_deg":237.2048,"mean_anomaly_deg":122.828,"bstar":0.00010697,"rev_number":8238,"period_min":97.678990161226,"perigee_km":641.20811440332,"apogee_km":654.06949959561,"semimajor_km":7025.7758069995,"source":"CELESTRAK","updated_at":"2026-09-23T09:00:21.884752Z"}}